Regional Weather Roundup
Issued by NWS

Home | Current Version | Previous Version | Text Only | Print | Product List | Glossary On
Versions: 1 2 3 4 5 6 7 8 9 10 11 12 13 14 15 16 17 18 19 20 21 22 23 24 25 26 27 28 29 30 31 32 33 34 35 36 37 38 39 40 41 42 43 44 45 46 47 48 49 50
000
ASUS43 KMPX 231301
RWRMN
WEATHER ROUNDUP FOR MINNESOTA
NATIONAL WEATHER SERVICE TWIN CITIES/CHANHASSEN MN
800 AM CDT SUN JUL 23 2017


NOTE: "FAIR" INDICATES FEW OR NO CLOUDS BELOW 12,000 FEET WITH NO
SIGNIFICANT WEATHER AND/OR OBSTRUCTIONS TO VISIBILITY. N/A MEANS
CURRENT SKY AND/OR WEATHER CONDITIONS ARE NOT AVAILABLE.

MNZ060>063-068>070-231400-
   Twin Cities Metro

CITY           SKY/WX    TMP DP  RH WIND       PRES   REMARKS
TWIN CITIES    MOSUNNY   70  56  61 N12       29.89R
ST PAUL        SUNNY     69  59  70 N10       29.89R
CRYSTAL        SUNNY     68  55  63 N10       29.88R
BLAINE         MOSUNNY   70  59  68 NW9       29.89R
LAKEVILLE      MOSUNNY   68  57  68 NW12      29.88S
EDEN PRAIRIE   SUNNY     70  58  65 N12       29.88R
SOUTH ST PAUL  SUNNY     70  56  62 NW10      29.88R
LAKE ELMO      FAIR      68  59  73 NW8       29.89R
$$
MNZ001>005-007-008-013>017-022>024-027-028-231400-
   Northwest Minnesota

CITY           SKY/WX    TMP DP  RH WIND       PRES   REMARKS
BEMIDJI        PTSUNNY   63  59  88 NW9       29.94R
HALLOCK        CLOUDY    59  57  94 N5        29.99R FOG
ROSEAU         CLOUDY    64  59  82 N7        29.97R
WARROAD        CLOUDY    66  63  88 NE10      29.98R
CROOKSTON      CLOUDY    63  61  94 N9        29.98R FOG
DETROIT LAKES  CLOUDY    61  59  94 N10G16    29.97R
MOORHEAD       CLOUDY    63  59  88 N8        29.98R
PARK RAPIDS    CLOUDY    63  57  81 NW9       29.94R
MAHNOMEN       CLOUDY    62  59  90 N8        29.97R
$$
MNZ006-009>011-018-025>026-231400-
   North Central Minnesota

CITY           SKY/WX    TMP DP  RH WIND       PRES   REMARKS
BAUDETTE       PTSUNNY   63  59  87 NE8       29.96R
FLAG ISLAND    PTSUNNY   64  59  82 NE6       29.97R
INTL FALLS     MOSUNNY   63  57  81 NE7       29.94R
WASKISH        CLOUDY    61  61 100 CALM      29.95R
BIG FORK       CLOUDY    61  61 100 N6        29.93R
LONGVILLE      CLOUDY    63  61  94 N5        29.91R
GRAND RAPIDS   CLOUDY    61  58  90 N7        29.93R
CRANE LAKE     CLOUDY    57  57 100 CALM      29.94R
ORR            CLOUDY    59  55  88 CALM      29.91R
COOK           CLOUDY    59  57  94 CALM      29.93R
WALKER         CLOUDY    61  58  89 NW7       29.93R
$$
MNZ012-019>021-037-231400-
   Northeast Minnesota

CITY           SKY/WX    TMP DP  RH WIND       PRES   REMARKS
DULUTH         FOG       55  55 100 E6        29.90R VSB 1
ELY            CLOUDY    57  57 100 NE5       29.91R
HIBBING        CLOUDY    60  59  96 N6        29.91R
EVELETH        PTSUNNY   63  61  95 N7        29.91R
DULUTH HARBOR  CLOUDY    59  55  88 NE5       29.89S
TWO HARBORS    CLOUDY    61  55  82 CALM      29.88R
SILVER BAY     CLOUDY    57  55  94 CALM      29.88R
GRAND MARAIS     N/A     56  55  97 SW6       29.87R
$$
MNZ029>031-032-039>041-046>048-054>057-064-231400-
   West Central Minnesota

CITY           SKY/WX    TMP DP  RH WIND       PRES   REMARKS
FERGUS FALLS   CLOUDY    61  61 100 N9        29.97R
WHEATON        SUNNY     64  57  77 NW9       29.99R
ALEXANDRIA     MOSUNNY   62  59  90 NW12      29.96R
ELBOW LAKE     CLOUDY    62  60  94 NW9       29.97R
WADENA         SUNNY     63  57  82 NW9       29.93S
GLENWOOD       SUNNY     64  59  82 NW9       29.94S
BENSON         SUNNY     64  59  82 N13       29.97R
ORTONVILLE     SUNNY     64  57  77 N12       29.97R
MADISON        SUNNY     66  64  94 NW8       29.97R
WILLMAR        FAIR      64  61  88 NW9       29.95R
$$
MNZ033>034-036-042>043-049>051-058-059-231400-
   Central Minnesota

CITY           SKY/WX    TMP DP  RH WIND       PRES   REMARKS
ST CLOUD       CLOUDY    63  60  90 NW8       29.91R
SAUK CENTRE    CLOUDY    63  58  86 NW8       29.94R
PAYNESVILLE    SUNNY     64  59  83 NW7       29.94R
AITKIN         MOSUNNY   64  59  82 NW8       29.90R
PINE RIVER     CLOUDY    63  57  82 NW3       29.95S
BRAINERD       CLOUDY    63  58  83 NW9       29.91R
STAPLES        MOSUNNY   63  57  82 N8        29.93R
LONG PRAIRIE   CLOUDY    61  57  88 W8        29.94R
LITTLE FALLS   CLOUDY    63  55  77 NW5       29.92R
LITCHFIELD     SUNNY     68  61  77 NW10      29.93R
BUFFALO        SUNNY     66  57  71 NW6       29.92R
MAPLE LAKE     SUNNY     67  60  77 NW6       29.92R
HUTCHINSON     SUNNY     67  61  79 W8        29.93R
$$
MNZ037-044-045-052-053-231400-
   East Central Minnesota

CITY           SKY/WX    TMP DP  RH WIND       PRES   REMARKS
PRINCETON      CLOUDY    64  59  82 NW3       29.90R
MORA           PTSUNNY   63  59  88 CALM      29.91R
CAMBRIDGE      PTSUNNY   66  55  68 N3        29.88R
RUSH CITY      MOSUNNY   65  58  78 N3        29.89R
MOOSE LAKE     MOSUNNY   63  57  82 N6        29.87R
HINCKLEY       PTSUNNY   64  61  88 N12       29.89R
CLOQUET        CLOUDY    57  55  94 E6        29.90R FOG
MCGREGOR       PTSUNNY   63  59  88 N7        29.91R
$$
MNZ071>073-080-081-089-090-097-098-231400-
   Southwest Minnesota

CITY           SKY/WX    TMP DP  RH WIND       PRES   REMARKS
MONTEVIDEO     SUNNY     68  61  77 N9        29.96R
GRANITE FALLS  SUNNY     66  62  86 W6        29.97R
CANBY          SUNNY     66  59  77 W7        29.99R
MARSHALL       SUNNY     65  60  84 NW10      29.97R
REDWOOD FALLS  SUNNY     66  59  78 NW8       29.94R
OLIVIA         SUNNY     64  59  82 NW9       29.93R
PIPESTONE      SUNNY     64  57  77 N7        29.99R
WINDOM         SUNNY     66  59  77 NW13      29.96R
WORTHINGTON    SUNNY     65  59  81 N10       29.98R
JACKSON        SUNNY     64  59  82 CALM      29.96R
SLAYTON        HVY RAIN  63  58  83 NW9       29.98S
$$
MNZ065>067-074>077-082>085-091>093-231400-
   South Central Minnesota

CITY           SKY/WX    TMP DP  RH WIND       PRES   REMARKS
MANKATO        SUNNY     68  61  78 N9        29.92R
NEW ULM        SUNNY     66  61  82 NW7       29.93R
ST JAMES       SUNNY     66  63  88 NW7       29.95R
FAIRMONT       SUNNY     67  63  87 NW10      29.93R
GLENCOE        SUNNY     67  63  86 NW7       29.91R
FARIBAULT      MOSUNNY   68  61  77 CALM      29.90R
OWATONNA       MOSUNNY   68  63  83 NW5       29.90R
WASECA         SUNNY     64  61  88 NW6       29.91R
ALBERT LEA     SUNNY     70  63  78 N5        29.90R
$$
MNZ078>079-086>088-094>096-231400-
   Southeast Minnesota

CITY           SKY/WX    TMP DP  RH WIND       PRES   REMARKS
ROCHESTER      PTSUNNY   68  62  81 N8        29.88R
RED WING       PTSUNNY   70  59  68 NW6       29.86R
STANTON        PTSUNNY   68  61  78 CALM      29.88R
DODGE CENTER   PTSUNNY   66  59  77 N7        29.89R
WINONA         PTSUNNY   68  68 100 CALM      29.85S
AUSTIN         MOSUNNY   70  64  83 NW5       29.88R
PRESTON        CLOUDY    67  63  84 CALM      29.88R
$$
ABBREVIATIONS USED IN REMARKS
   TC - TEMPERATURES IN CELSIUS
  WCI - WIND CHILL INDEX
   HX - HEAT INDEX
  VSB - VISIBILITY
$$




USA.gov is the U.S. government's official web portal to all federal, state and local government web resources and services.